STARLINK-4533 (53406 NORAD) Tracking and Keplerian Element Data

This shows tracking and keplerian element data for the satellite.

Feedback or suggestion? Click here.




ElementValue
Catalog53406
NameSTARLINK-4533
Epoch Orbit1625
Epoch Day324.72911183
Epoch Year2022
RAAN123.3943
Inclination53.2158
Eccentricity0.0002071
Argument of Perigee58.0474
Mean Anonmoly302.0719
Mean Motion15.08839669
Decay Rate1.362E-05
L11 53406U 22097U 22324.72911183 .00001362 00000+0 10368-3 0 9995
L22 53406 53.2158 123.3943 0002071 58.0474 302.0719 15.08839669 16258



Live tracking and technical data element details for STARLINK-4533 (NORAD 53406). STARLINK-4533 can be tracked NOW for your location showing map with azimuth and elevation plus other details from your city location.







IsCatalogInMostPopularTable: catalog: 53406, numindb: 5
Update: records affected: 1



GetName: 53406 STARLINK-4533

Hit Count: updated at: Tue, 29 Nov 2022 00:51:12 GMT